YO8KGT-13 Weather Reports


Display with metric or nautical units.
time (UTC)temp
F
wind
direction
speed
MPH
gust
MPH
rain 1hr
in
rain 24hr
in
rain mn
in
humidity
%
barometer
mb
20260510143951 62 22 0.0 0.0 0.00 0.00 0.00 62 945.0
20260510143444 63 22 0.0 57.0 0.00 0.00 0.00 62 945.0
20260510142955 63 22 0.0 57.0 0.00 0.00 0.00 61 945.0
20260510142444 63 22 0.0 57.0 0.00 0.00 0.00 61 945.0
20260510141944 64 22 0.0 2.0 0.00 0.00 0.00 60 945.0
20260510141443 64 22 2.0 3.0 0.00 0.00 0.00 60 945.0
20260510140943 65 22 1.0 3.0 0.00 0.00 0.00 59 945.0
20260510140443 65 22 0.0 4.0 0.00 0.00 0.00 59 944.0
20260510135944 66 22 2.0 57.0 0.00 0.00 0.00 59 944.0
20260510135444 67 22 4.0 57.0 0.00 0.00 0.00 58 944.0
20260510134943 67 315 57.0 57.0 0.00 0.00 0.00 58 944.0
20260510134450 67 22 0.0 57.0 0.00 0.00 0.00 59 944.0
20260510133943 67 22 0.0 57.0 0.00 0.00 0.00 58 945.0
20260510133444 66 315 57.0 57.0 0.00 0.00 0.00 59 945.0
20260510132944 66 22 0.0 4.0 0.00 0.00 0.00 59 945.0
20260510132459 66 22 2.0 4.0 0.00 0.00 0.00 59 944.0
20260510131944 65 22 0.0 5.0 0.00 0.00 0.00 60 945.0
20260510131443 66 22 0.0 5.0 0.00 0.00 0.00 59 945.0
20260510131009 66 22 2.0 5.0 0.00 0.00 0.00 58 945.0
20260510130443 66 22 2.0 6.0 0.00 0.00 0.00 60 945.0
20260510125946 65 22 3.0 6.0 0.00 0.00 0.00 60 945.0
20260510125444 65 22 0.0 6.0 0.00 0.00 0.00 59 945.0
20260510124944 65 0 2.0 2.0 0.00 0.00 0.00 59 945.0
20260510124443 66 315 2.0 5.0 0.00 0.00 0.00 60 945.0
20260510123953 66 45 0.0 5.0 0.00 0.00 0.00 59 945.0
20260510123443 66 45 5.0 7.0 0.00 0.00 0.00 59 945.0
20260510122943 66 45 0.0 7.0 0.00 0.00 0.00 58 945.0
20260510122504 66 45 0.0 7.0 0.00 0.00 0.00 58 945.0
20260510122001 66 45 0.0 3.0 0.00 0.00 0.00 59 945.0
20260510121443 66 45 3.0 3.0 0.00 0.00 0.00 59 945.0
20260510120943 66 45 3.0 3.0 0.00 0.00 0.00 59 945.0
20260510120444 66 45 0.0 4.0 0.00 0.00 0.00 59 945.0
20260510115944 66 45 2.0 6.0 0.00 0.00 0.00 59 945.0
20260510115448 66 45 4.0 6.0 0.00 0.00 0.00 59 945.0
20260510114943 66 45 6.0 6.0 0.00 0.00 0.00 59 945.0
20260510114444 66 45 4.0 6.0 0.00 0.00 0.00 59 945.0
20260510113957 66 45 0.0 6.0 0.00 0.00 0.00 59 946.0
20260510113454 66 45 2.0 6.0 0.00 0.00 0.00 59 946.0
20260510112944 66 45 0.0 3.0 0.00 0.00 0.00 60 946.0
20260510112443 65 45 0.0 4.0 0.00 0.00 0.00 59 946.0
20260510112003 65 45 0.0 8.0 0.00 0.00 0.00 59 946.0
20260510111503 66 45 2.0 8.0 0.00 0.00 0.00 59 946.0
20260510110944 66 45 8.0 8.0 0.00 0.00 0.00 60 946.0
20260510110443 66 45 0.0 5.0 0.00 0.00 0.00 60 946.0
20260510105944 67 45 5.0 5.0 0.00 0.00 0.00 59 946.0
20260510105449 67 45 0.0 4.0 0.00 0.00 0.00 61 946.0
20260510104948 66 45 2.0 4.0 0.00 0.00 0.00 61 946.0
20260510104443 67 45 2.0 4.0 0.00 0.00 0.00 60 946.0
20260510103944 68 45 2.0 4.0 0.00 0.00 0.00 60 946.0
20260510103459 68 45 2.0 4.0 0.00 0.00 0.00 60 946.0
20260510102956 69 45 0.0 5.0 0.00 0.00 0.00 61 946.0
20260510102443 68 22 4.0 5.0 0.00 0.00 0.00 63 946.0
20260510101944 67 45 5.0 5.0 0.00 0.00 0.00 63 946.0
20260510101444 66 45 0.0 2.0 0.00 0.00 0.00 64 946.0
20260510100944 66 45 0.0 2.0 0.00 0.00 0.00 64 946.0
20260510100444 67 45 0.0 2.0 0.00 0.00 0.00 63 946.0
20260510095943 68 45 0.0 3.0 0.00 0.00 0.00 64 946.0
20260510095444 68 45 0.0 6.0 0.00 0.00 0.00 65 946.0
20260510094952 67 45 0.0 6.0 0.00 0.00 0.00 66 947.0
20260510094451 66 45 0.0 6.0 0.00 0.00 0.00 67 947.0
20260510093944 65 45 0.0 5.0 0.00 0.00 0.00 68 947.0
20260510093444 64 45 0.0 5.0 0.00 0.00 0.00 69 947.0
20260510093003 64 45 0.0 5.0 0.00 0.00 0.00 70 947.0
20260510092444 64 45 0.0 2.0 0.00 9.83 0.00 71 947.0
20260510091944 64 45 0.0 4.0 0.00 0.00 0.00 71 947.0
20260510091443 63 45 2.0 5.0 0.00 0.00 0.00 71 947.0
20260510090944 63 22 4.0 5.0 0.00 0.00 0.00 72 947.0
20260510090449 63 22 0.0 4.0 0.00 0.00 0.00 73 947.0
20260510085949 63 22 3.0 5.0 0.00 0.00 0.00 74 947.0
20260510085444 62 22 3.0 6.0 0.00 0.00 0.00 75 947.0
20260510084944 61 22 2.0 6.0 0.00 0.00 0.00 76 947.0
20260510084459 61 45 6.0 6.0 0.00 0.00 0.00 77 947.0
20260510083943 61 22 3.0 3.0 0.00 0.00 0.00 79 947.0
20260510083442 60 22 0.0 4.0 0.00 0.00 0.00 80 947.0
20260510082944 59 22 2.0 5.0 0.00 0.00 0.00 81 947.0
20260510082443 58 22 0.0 5.0 0.00 0.00 0.00 81 947.0
20260510081949 57 22 5.0 5.0 0.00 0.00 0.00 82 947.0
20260510081446 57 22 5.0 5.0 0.00 0.00 0.00 82 947.0
20260510080943 57 22 0.0 2.0 0.00 0.00 0.00 82 947.0
20260510080443 58 22 1.0 1.0 0.00 0.00 0.00 82 947.0
20260510075957 58 22 0.0 0.0 0.00 0.00 0.00 82 947.0
20260510075443 59 22 0.0 2.0 0.00 0.00 0.00 82 947.0
20260510074943 60 22 0.0 2.0 0.00 0.00 0.00 83 947.0
20260510074443 59 22 0.0 2.0 0.00 0.00 0.00 84 947.0
20260510073943 59 22 0.0 4.0 0.00 0.00 0.00 85 947.0
20260510073443 59 0 0.0 5.0 0.00 0.00 0.00 86 947.0
20260510072943 58 22 4.0 5.0 0.00 0.00 0.00 87 947.0
20260510072443 57 0 5.0 5.0 0.00 0.00 0.00 89 947.0
20260510071942 56 0 3.0 3.0 0.00 0.00 0.00 89 947.0
20260510071451 56 0 0.0 3.0 0.00 0.00 0.00 90 947.0
20260510070943 54 0 0.0 3.0 0.00 0.00 0.00 90 947.0
20260510070444 54 0 0.0 0.0 0.00 0.00 0.00 90 947.0
20260510065944 53 0 0.0 0.0 0.00 9.83 0.00 90 947.0
20260510065500 53 0 0.0 2.0 0.00 0.00 0.00 90 947.0
20260510064943 52 0 0.0 2.0 0.00 0.00 0.00 90 947.0
20260510064444 52 0 0.0 2.0 0.00 0.00 0.00 90 947.0
20260510063942 52 0 0.0 2.0 0.00 0.00 0.00 90 947.0
20260510063443 52 0 0.0 2.0 0.00 0.00 0.00 90 947.0
20260510062944 52 0 0.0 4.0 0.00 0.00 0.00 91 947.0
20260510062444 52 0 0.0 4.0 0.00 0.00 0.00 91 947.0
20260510061944 52 0 4.0 5.0 0.00 0.00 0.00 91 947.0
20260510061444 51 0 0.0 5.0 0.00 0.00 0.00 91 948.0
20260510060952 51 0 5.0 5.0 0.00 0.00 0.00 91 947.0
20260510060443 51 0 0.0 4.0 0.00 0.00 0.00 91 947.0
20260510055943 51 0 0.0 4.0 0.00 0.00 0.00 91 947.0
20260510055443 52 0 0.0 0.0 0.00 0.00 0.00 91 947.0
20260510055002 52 0 0.0 3.0 0.00 0.00 0.00 91 947.0
20260510054444 52 0 0.0 3.0 0.00 0.00 0.00 91 948.0
20260510053943 52 0 0.0 3.0 0.00 0.00 0.00 91 948.0
20260510053444 52 0 0.0 3.0 0.00 0.00 0.00 91 947.0
20260510052943 51 0 0.0 3.0 0.00 0.00 0.00 91 947.0
20260510052447 51 0 3.0 3.0 0.00 0.00 0.00 91 947.0
20260510051943 51 0 0.0 1.0 0.00 0.00 0.00 91 947.0
20260510051442 51 0 0.0 1.0 0.00 0.00 0.00 91 947.0
20260510050943 51 0 1.0 1.0 0.00 0.00 0.00 91 947.0
20260510050456 51 0 0.0 1.0 0.00 0.00 0.00 91 947.0
20260510045943 51 0 0.0 3.0 0.00 0.00 0.00 91 947.0
20260510045444 51 0 0.0 3.0 0.00 0.00 0.00 91 947.0
20260510044942 51 0 3.0 3.0 0.00 0.00 0.00 91 947.0
20260510044444 51 0 0.0 2.0 0.00 0.00 0.00 91 947.0
20260510043943 51 0 0.0 2.0 0.00 0.00 0.00 91 947.0
20260510043635 51 0 0.0 2.0 0.00 0.00 0.00 91 947.0
20260510043137 51 0 2.0 2.0 0.00 0.00 0.00 91 947.0
20260510042635 51 0 0.0 2.0 0.00 0.00 0.00 91 947.0
20260510042134 51 270 0.0 2.0 0.00 0.00 0.00 91 947.0
20260510041635 51 338 0.0 3.0 0.00 0.00 0.00 91 947.0
20260510041146 51 338 0.0 4.0 0.00 0.00 0.00 91 947.0
20260510040646 51 338 0.0 4.0 0.00 0.00 0.00 91 947.0
20260510040135 51 0 4.0 4.0 0.00 0.00 0.00 91 947.0
20260510035634 51 0 0.0 3.0 0.00 0.00 0.00 91 947.0
20260510035135 51 0 0.0 3.0 0.00 0.00 0.00 91 947.0
20260510034636 51 0 0.0 3.0 0.00 0.00 0.00 91 947.0
20260510034136 51 0 0.0 1.0 0.00 0.00 0.00 91 947.0
20260510033635 51 0 0.0 1.0 0.00 0.00 0.00 91 947.0
20260510033135 51 0 0.0 2.0 0.00 0.00 0.00 91 947.0
20260510032641 51 0 0.0 3.0 0.00 0.00 0.00 91 947.0
20260510032141 51 0 0.0 3.0 0.00 0.00 0.00 91 947.0
20260510031636 51 0 0.0 3.0 0.00 0.00 0.00 91 947.0
20260510031135 51 0 0.0 3.0 0.00 0.00 0.00 91 947.0
20260510030649 51 22 3.0 5.0 0.00 0.00 0.00 91 947.0
20260510030134 51 22 0.0 5.0 0.00 0.00 0.00 91 947.0
20260510025635 51 0 2.0 5.0 0.00 0.00 0.00 91 947.0
20260510025134 51 0 4.0 4.0 0.00 0.00 0.00 91 947.0
20260510024635 51 0 0.0 4.0 0.00 0.00 0.00 91 947.0
20260510024136 51 0 0.0 4.0 0.00 0.00 0.00 91 947.0
20260510023636 51 0 4.0 4.0 0.00 0.00 0.00 91 947.0
20260510023135 51 0 2.0 3.0 0.00 0.00 0.00 91 947.0
20260510022635 51 0 1.0 3.0 0.00 0.00 0.00 91 947.0
20260510022142 52 0 0.0 0.0 0.00 0.00 0.00 91 947.0
20260510021635 52 0 0.0 3.0 0.00 0.00 0.00 91 947.0
20260510021135 52 0 0.0 3.0 0.00 0.00 0.00 91 947.0
20260510020636 52 0 2.0 3.0 0.00 0.00 0.00 91 947.0
20260510020152 52 0 0.0 2.0 0.00 0.00 0.00 91 947.0
20260510015636 52 0 0.0 0.0 0.00 0.00 0.00 91 947.0
20260510015134 52 0 0.0 2.0 0.00 0.00 0.00 91 947.0
20260510014635 52 0 0.0 2.0 0.00 0.00 0.00 91 947.0
20260510014134 52 0 2.0 3.0 0.00 0.00 0.00 91 947.0
20260510013638 52 0 0.0 3.0 0.00 0.00 0.00 91 947.0
20260510013135 52 0 0.0 3.0 0.00 0.00 0.00 90 947.0
20260510012635 52 0 2.0 2.0 0.00 0.00 0.00 90 947.0
20260510012135 52 0 2.0 3.0 0.00 0.00 0.00 90 947.0
20260510011646 52 0 0.0 3.0 0.00 0.00 0.00 90 947.0
20260510011134 52 45 0.0 3.0 0.00 0.00 0.00 90 947.0
20260510010636 52 45 0.0 3.0 0.00 0.00 0.00 90 947.0
20260510010135 52 45 0.0 1.0 0.00 0.00 0.00 90 947.0
20260510005655 52 45 0.0 1.0 0.00 0.00 0.00 90 947.0
20260510005134 52 45 0.0 1.0 0.00 0.00 0.00 90 947.0
20260510004635 52 45 0.0 0.0 0.00 0.00 0.00 90 947.0
20260510004134 52 45 0.0 0.0 0.00 0.00 0.00 90 947.0
20260510003634 52 45 0.0 2.0 0.00 0.00 0.00 90 947.0
20260510003141 53 45 0.0 2.0 0.00 0.00 0.00 90 947.0
20260510002635 53 45 0.0 2.0 0.00 0.00 0.00 90 947.0
20260510002134 53 45 0.0 2.0 0.00 0.00 0.00 90 947.0
20260510001635 53 45 0.0 2.0 0.00 0.00 0.00 90 947.0
20260510001150 53 45 0.0 0.0 0.00 0.00 0.00 90 947.0
20260510000636 53 45 0.0 0.0 0.00 0.00 0.00 90 947.0
20260510000135 53 45 0.0 0.0 0.00 0.00 0.00 90 947.0
20260509235635 53 45 0.0 0.0 0.00 0.00 0.00 90 947.0
20260509235134 53 0 0.0 0.0 0.00 0.00 0.00 90 947.0
20260509234635 53 45 0.0 0.0 0.00 0.00 0.00 90 947.0
20260509234134 53 45 0.0 0.0 0.00 0.00 0.00 90 947.0
20260509233634 53 45 0.0 0.0 0.00 0.00 0.00 90 947.0
20260509233135 53 45 0.0 0.0 0.00 0.00 0.00 90 947.0
20260509232644 53 45 0.0 0.0 0.00 0.00 0.00 90 947.0
20260509232135 53 45 0.0 0.0 0.00 0.00 0.00 90 947.0
20260509231635 54 45 0.0 0.0 0.00 0.00 0.00 90 947.0
20260509231135 54 45 0.0 0.0 0.00 0.00 0.00 90 947.0
20260509230654 54 45 0.0 0.0 0.00 0.00 0.00 90 947.0
20260509230135 54 45 0.0 5.0 0.00 0.00 0.00 90 947.0
20260509225635 54 45 0.0 5.0 0.00 0.00 0.00 90 947.0
20260509225134 54 45 0.0 1.0 0.00 0.00 0.00 90 947.0
20260509224635 54 45 0.0 1.0 0.00 0.00 0.00 90 947.0
20260509224141 54 45 1.0 1.0 0.00 0.00 0.00 90 947.0
20260509223634 54 45 0.0 0.0 0.00 0.00 0.00 90 947.0
20260509223135 54 45 0.0 0.0 0.00 0.00 0.00 90 947.0
20260509222635 54 45 0.0 0.0 0.00 0.00 0.00 90 947.0
20260509222152 54 45 0.0 0.0 0.00 0.00 0.00 90 947.0
20260509221635 54 45 0.0 0.0 0.00 0.00 0.00 90 947.0
20260509221135 54 45 0.0 0.0 0.00 0.00 0.00 90 947.0
20260509220634 54 45 0.0 0.0 0.00 0.00 0.00 90 947.0
20260509220134 54 45 0.0 0.0 0.00 0.00 0.00 90 947.0
20260509215638 54 45 0.0 0.0 0.00 0.00 0.00 90 947.0
20260509215134 54 45 0.0 0.0 0.00 0.00 0.00 90 947.0
20260509214634 54 45 0.0 0.0 0.00 0.00 0.00 90 947.0
20260509214134 54 45 0.0 0.0 0.00 0.00 0.00 90 947.0
20260509213649 54 45 0.0 0.0 0.00 0.00 0.00 90 947.0
20260509213134 54 45 0.0 0.0 0.00 0.00 0.00 90 947.0
20260509212635 54 45 0.0 0.0 0.00 0.00 0.00 90 947.0
20260509212134 54 45 0.0 0.0 0.00 0.00 0.00 90 947.0
20260509211634 54 45 0.0 0.0 0.00 0.00 0.00 90 947.0
20260509211134 54 45 0.0 0.0 0.00 0.00 0.00 90 947.0
20260509210634 54 45 0.0 0.0 0.00 0.00 0.00 90 947.0
20260509210135 54 45 0.0 0.0 0.00 0.00 0.00 90 947.0
20260509205635 54 45 0.0 0.0 0.00 0.00 0.00 89 947.0
20260509205143 54 45 0.0 0.0 0.00 0.00 0.00 89 947.0
20260509204634 54 45 0.0 0.0 0.00 0.00 0.00 89 947.0
20260509204135 54 45 0.0 0.0 0.00 0.00 0.00 89 947.0
20260509203635 55 45 0.0 0.0 0.00 0.00 0.00 89 947.0
20260509203154 55 45 0.0 0.0 0.00 0.00 0.00 89 947.0
20260509202635 55 45 0.0 0.0 0.00 0.00 0.00 89 947.0
20260509202135 55 45 0.0 0.0 0.00 0.00 0.00 89 947.0
20260509201634 55 45 0.0 0.0 0.00 0.00 0.00 89 947.0
20260509201135 55 45 0.0 0.0 0.00 0.00 0.00 89 947.0
20260509200642 55 45 0.0 0.0 0.00 0.00 0.00 89 947.0
20260509200135 55 45 0.0 0.0 0.00 0.00 0.00 89 947.0
20260509195633 55 45 0.0 0.0 0.00 0.00 0.00 89 947.0
20260509195134 55 45 0.0 0.0 0.00 0.00 0.00 89 948.0
20260509194651 55 45 0.0 0.0 0.00 0.00 0.00 89 948.0
20260509194134 55 45 0.0 0.0 0.00 0.00 0.00 89 948.0
20260509193635 55 45 0.0 0.0 0.00 0.00 0.00 89 948.0
20260509193135 55 45 0.0 0.0 0.00 0.00 0.00 89 948.0
20260509192634 55 45 0.0 0.0 0.00 0.00 0.00 89 948.0
20260509192138 55 45 0.0 0.0 0.00 0.00 0.00 89 948.0
20260509191634 55 45 0.0 0.0 0.00 0.00 0.00 89 948.0
20260509191134 55 45 0.0 0.0 0.00 0.00 0.00 88 948.0
20260509190634 55 45 0.0 0.0 0.00 0.00 0.00 88 948.0
20260509190146 55 45 0.0 0.0 0.00 0.00 0.00 88 948.0
20260509185634 55 45 0.0 0.0 0.00 0.00 0.00 88 948.0
20260509185134 55 45 0.0 0.0 0.00 0.00 0.00 88 948.0
20260509184634 55 45 0.0 0.0 0.00 0.00 0.00 88 948.0
20260509184154 55 45 0.0 0.0 0.00 0.00 0.00 88 947.0
20260509183634 55 45 0.0 0.0 0.00 0.00 0.00 88 947.0
20260509183134 55 45 0.0 0.0 0.00 0.00 0.00 88 947.0
20260509182635 55 45 0.0 0.0 0.00 0.00 0.00 88 947.0
20260509182135 55 0 0.0 0.0 0.00 0.00 0.00 88 947.0
20260509181641 55 45 0.0 0.0 0.00 0.00 0.00 88 947.0
20260509181134 55 45 0.0 0.0 0.00 0.00 0.00 88 947.0
20260509180635 55 45 0.0 0.0 0.00 0.00 0.00 88 947.0
20260509180149 55 45 0.0 0.0 0.00 0.00 0.00 88 947.0
20260509175648 55 45 0.0 0.0 0.00 0.00 0.00 88 947.0
20260509175133 55 45 0.0 0.0 0.00 0.00 0.00 88 947.0
20260509174634 55 45 0.0 0.0 0.00 0.00 0.00 88 947.0
20260509174135 55 45 0.0 0.0 0.00 0.00 0.00 88 947.0
20260509173634 55 45 0.0 0.0 0.00 0.00 0.00 88 947.0
20260509173134 55 45 0.0 0.0 0.00 0.00 0.00 88 947.0
20260509172634 56 45 0.0 0.0 0.00 0.00 0.00 88 947.0
20260509172135 56 45 0.0 0.0 0.00 0.00 0.00 88 947.0
20260509171644 56 45 0.0 0.0 0.00 0.00 0.00 88 947.0
20260509171141 56 45 0.0 0.0 0.00 0.00 0.00 88 947.0
20260509170634 56 45 0.0 0.0 0.00 0.00 0.00 88 947.0
20260509170134 56 45 0.0 0.0 0.00 0.00 0.00 87 947.0
20260509165653 56 45 0.0 0.0 0.00 0.00 0.00 87 947.0
20260509165220 56 45 0.0 0.0 0.00 0.00 0.00 87 947.0
20260509164635 56 45 0.0 0.0 0.00 0.00 0.00 87 947.0
20260509164133 56 45 0.0 0.0 0.00 0.00 0.00 87 947.0
20260509163635 56 45 0.0 0.0 0.00 0.00 0.00 87 947.0
20260509163141 57 45 0.0 0.0 0.00 0.00 0.00 87 947.0
20260509162637 57 45 0.0 0.0 0.00 0.00 0.00 87 947.0
20260509162133 57 45 0.0 0.0 0.00 0.00 0.00 87 947.0
20260509161634 57 45 0.0 0.0 0.00 0.00 0.00 87 947.0
20260509161151 57 45 0.0 0.0 0.00 0.00 0.00 87 947.0
20260509160717 57 45 0.0 0.0 0.00 0.00 0.00 86 947.0
20260509160134 58 45 0.0 0.0 0.00 0.00 0.00 86 947.0
20260509155633 58 45 0.0 0.0 0.00 0.00 0.00 86 947.0
20260509155135 58 45 0.0 0.0 0.00 0.00 0.00 86 947.0
20260509154638 58 45 0.0 0.0 0.00 0.00 0.00 86 947.0
20260509154138 58 45 0.0 0.0 0.00 0.00 0.00 86 947.0
20260509153633 59 45 0.0 0.0 0.00 0.00 0.00 86 947.0
20260509153134 59 45 0.0 0.0 0.00 0.00 0.00 86 947.0
20260509152647 59 45 0.0 0.0 0.00 0.00 0.00 87 947.0
20260509152214 59 45 0.0 0.0 0.00 0.00 0.00 86 947.0
20260509151634 59 45 0.0 0.0 0.00 0.00 0.00 86 947.0
20260509151133 59 45 0.0 0.0 0.00 0.00 0.00 86 947.0
20260509150634 59 45 0.0 0.0 0.00 0.00 0.00 86 947.0
20260509150136 59 45 0.0 0.0 0.00 0.00 0.00 86 947.0
20260509145634 59 45 0.0 0.0 0.00 0.00 0.00 86 947.0